Regional Weather Roundup
Issued by NWS Sterling, VA

Home | Current Version | Previous Version | Text Only | Print | Product List | Glossary On
Versions: 1 2 3 4 5 6 7 8 9 10 11 12 13 14 15 16 17 18 19 20 21 22 23 24 25 26 27 28 29 30 31 32 33 34 35 36 37 38 39 40 41 42 43 44 45 46 47 48 49 50
000
ASUS41 KLWX 062110
RWRLWX

REGIONAL WEATHER ROUNDUP
NATIONAL WEATHER SERVICE BALTIMORE MD/WASHINGTON DC
400 PM EST TUE DEC 06 2016

Note: "FAIR" indicates few or no clouds below 12,000 feet
with no significant weather and/or obstructions to visibility.
 TC=TEMPERATURE CELSIUS

 * =Non NWS site. Station does not report precipitation (e.g. rain,
    snow, etc.), thunder, or fog.

DCZ001-MDZ009-015-VAZ040>042-051-053>054-062200-
WASHINGTON METRO

CITY           SKY/WX    TMP DP  RH WIND       PRES   REMARKS
WASHINGTON NAT RAIN      42  41  96 N14       29.83F FOG
DULLES         HVY RAIN  39  38  96 N8        29.86S FOG
QUANTICO       LGT RAIN  43  40  89 NE14      29.81F FOG
COLLEGE PARK*  CLOUDY    39  37  93 NE7       29.82F
LEESBURG*      RAIN      39  39 100 MISG      29.86F
MANASSAS*      RAIN     N/A N/A N/A N12       29.85S VSB 1
GAITHERSBURG*  CLOUDY    39  34  81 NE7       29.86F

$$

MDZ006>007-011-014-062200-
BALTIMORE METRO

CITY           SKY/WX    TMP DP  RH WIND       PRES   REMARKS
BWI AIRPORT    RAIN      46  40  79 NE8       29.86F
MD SCIENCE CTR   N/A     42  38  85 MISG      29.86F
MARTIN STATE   RAIN      43  43 100 N12       29.89F
ANNAPOLIS      LGT RAIN  44  41  89 N9        29.83F FOG
FORT MEADE*    CLOUDY    39  37  93 NE7       29.87F

$$

MDZ012-015-019>023-062200-
MARYLAND EASTERN SHORE

CITY           SKY/WX    TMP DP  RH WIND       PRES   REMARKS
OCEAN CITY     LGT RAIN  51  47  86 E20G28    29.77F
SALISBURY      RAIN      49  47  93 E18G30    29.74F FOG
BAY BRIDGE AP* RAIN      43  41  93 NE9       29.83F FOG
CAMBRIDGE*     CLOUDY    45  45 100 NE9       29.78F
EASTON*        LGT RAIN  46  43  87 N10       29.85S FOG

$$

MDZ017>025-062200-
SOUTHERN MARYLAND

CITY           SKY/WX    TMP DP  RH WIND       PRES   REMARKS
PATUXENT RIVER LGT RAIN  47  46  97 NE15      29.75F FOG
ST INIGOES     RAIN      48  47  96 NE13G21   29.72F FOG
LEONARDTOWN*   CLOUDY    45  43  93 NE5       29.76F

$$

MDZ003>005-062200-
NORTH CENTRAL MARYLAND

CITY           SKY/WX    TMP DP  RH WIND       PRES   REMARKS
FREDERICK*     LGT RAIN  37  37 100 NE9       29.89F
HAGERSTOWN APT RAIN      38  35  89 NE7       29.84F FOG
WESTMINSTER*   RAIN      37  36  93 E7        29.85F

$$

MDZ501>502-062200-
WESTERN MARYLAND

CITY           SKY/WX    TMP DP  RH WIND       PRES   REMARKS
OAKLAND*       CLOUDY    32  32 100 SE3       29.71S FOG
CUMBERLAND*    NOT AVBL

$$

VAZ025>031-062200-
SHENANDOAH VALLEY

CITY           SKY/WX    TMP DP  RH WIND       PRES   REMARKS
WINCHESTER*    RAIN      34  34 100 NW3       29.86R
FRONT ROYAL*   CLOUDY    36  36 100 NE5       29.81F
LURAY*         RAIN      37  37 100 N6        29.82F
NEW MARKET*    CLOUDY    36  34  93 CALM      29.83F
STAUNTON*      RAIN      36  35  98 NW7       29.82F
WAYNESBORO*    CLOUDY    36  35  96 CALM      29.79F

$$

WVZ021-048>050-054>055-062200-
EASTERN WEST VIRGINIA PANHANDLE

CITY           SKY/WX    TMP DP  RH WIND       PRES   REMARKS
MARTINSBURG    RAIN      37  35  92 N7        29.85F FOG
PETERSBURG*    MIX PCPN  37  36  98 CALM      29.85F

$$

VAZ036>039-050-062200-
CENTRAL FOOTHILLS

CITY           SKY/WX    TMP DP  RH WIND       PRES   REMARKS
CHARLOTTESVILL LGT RAIN  41  38  89 NE8       29.81F FOG
CULPEPER*      HVY RAIN  40  40  99 CALM      29.85F
ORANGE*        LGT RAIN  41  41 100 W10       29.85S
GORDONSVILLE*  CLOUDY    39  38  97 N5        29.82R FOG
WARRENTON*     HVY RAIN  40  36  85 N9        29.83R

$$

VAZ055>057-062200-
NORTH AND CENTRAL PIEDMONT

CITY           SKY/WX    TMP DP  RH WIND       PRES   REMARKS
FREDERICKSBRG* RAIN      42  42 100 N13G18    29.78F
STAFFORD*      RAIN      40  40 100 N13       29.83F

$$

NCZ024-NYZ072-PAZ021-071-VAZ022-071-062200-
OTHER REGIONAL OBSERVATIONS

CITY           SKY/WX    TMP DP  RH WIND       PRES   REMARKS
NEW YORK CITY  CLOUDY    45  29  53 VRB5      29.97F
PHILADELPHIA   RAIN      43  39  86 NE8       29.93R FOG
PITTSBURGH     LGT RAIN  40  38  93 SE8       29.71R FOG
ROANOKE        LGT RAIN  40  38  93 N5        29.80F
RICHMOND       RAIN      45  44  97 N12       29.70F FOG
RALEIGH        LGT RAIN  47  45  93 N8        29.72R FOG

$$

ANZ530>537-062200-
MARINE OBSERVATIONS

STATION/POSITION TIME  TEMP    WIND        PRES
                       AIR SEA DIR/SP/G
                 (UTC) (F)     (DEG/KT/KT) (MB)
THOMAS PT LIGHT  2100   43 49   30/ 23/ 25   N/A
BALT KEY BRIDGE  2042   41      30/ 13/ 17 1011.4F
COVE POINT       2042   45      40/ 13/ 15 1009.2S
LEWISETTA        2042   49 48   90/ 17/ 21 1006.3F
SOLOMONS ISLAND  2042   47 50   20/ 10/ 14   N/A
PINEY POINT      2042           80/  9/ 11   N/A

$$




USA.gov is the U.S. government's official web portal to all federal, state and local government web resources and services.